Regional Weather Roundup
Issued by NWS Northern Indiana

Home | Current Version | Previous Version | Text Only | Print | Product List | Glossary Off
Versions: 1 2 3 4 5 6 7 8 9 10 11 12 13 14 15 16 17 18 19 20 21 22 23 24 25 26 27 28 29 30 31 32 33 34 35 36 37 38 39 40 41 42 43 44 45 46 47 48 49 50

000
ASUS43 KIWX 041400
RWRIWX

KIWX WEATHER ROUNDUP
NATIONAL WEATHER SERVICE NORTHERN INDIANA
1000 AM EDT SAT JUL 04 2015

NOTE: "FAIR" INDICATES FEW OR NO CLOUDS BELOW 12,000 FEET WITH NO
SIGNIFICANT WEATHER AND/OR OBSTRUCTIONS TO VISIBILITY.

* THESE STATIONS ARE NOT UNDER NWS QUALITY CONTROL. THEY ALSO MAY NOT
  REPORT WEATHER SUCH AS PRECIPITATION OR FOG.

INZ001>027-041500-
NORTHERN INDIANA

CITY           SKY/WX    TMP DP  RH WIND       PRES   REMARKS
GARY*          SUNNY    N/A N/A N/A MISG      30.00S HAZE
SOUTH BEND     SUNNY     68  56  65 CALM      30.01R
ELKHART*       SUNNY     66  57  72 CALM      30.01S
GOSHEN         SUNNY     67  60  78 CALM      30.01R
MONTICELLO*    SUNNY     66  60  81 CALM      30.01R
ANGOLA*          N/A     68  61  77 NW3       30.00S
FORT WAYNE     SUNNY     68  60  75 SW3       30.02R
PERU/GRISSOM   SUNNY     69  61  76 VRB1      30.01R

$$
INZ028>050-041500-
CENTRAL INDIANA

CITY           SKY/WX    TMP DP  RH WIND       PRES   REMARKS
LAFAYETTE      SUNNY     67  60  78 CALM      30.01R
KOKOMO*        SUNNY     72  61  68 CALM      30.01S
MUNCIE*        SUNNY     71  59  65 CALM      30.02R
INDIANAPOLIS   SUNNY     72  59  63 CALM      30.00R

$$
MIZ043>046-050>051-056>058-064>065-071>073-077>080-041500-
SOUTHWEST LOWER MICHIGAN

CITY           SKY/WX    TMP DP  RH WIND       PRES   REMARKS
BATTLE CREEK   SUNNY     69  57  65 NW5       30.01S
BENTON HARBOR  SUNNY     68  57  68 CALM      30.00R
COLDWATER*     SUNNY     67  58  72 NW3       30.00S
HILLSDALE*     SUNNY     69  60  72 NW7       30.01R
HOLLAND        SUNNY     69  56  62 CALM      30.00S
GRAND RAPIDS   PTSUNNY   67  53  61 W3        30.00S
KALAMAZOO      SUNNY     69  54  58 NW5       30.00F
STURGIS*       SUNNY     66  57  72 CALM      30.00S
THREE RIVERS*  FAIR      67  56  66 CALM      30.01S

$$
OHZ001>008-015>018-024>025-041500-
NORTHWEST OHIO

CITY           SKY/WX    TMP DP  RH WIND       PRES   REMARKS
DEFIANCE       SUNNY     69  58  67 VRB3      30.00S
FINDLAY        SUNNY     68  55  63 N5        30.00R
TOLEDO EXPRESS SUNNY     70  58  65 N3        29.99R
TOLEDO METCALF SUNNY     68  56  65 NW5       30.00R
LIMA           SUNNY     67  53  61 N3        30.01R

$$
AND FOR LAKE MICHIGAN COASTAL AND OPEN LAKE BUOY OBSERVATIONS

STATION/POSITION TEMP    WIND        PRES    VSBY  WAVE
                 AIR SEA DIR/SP/G                  HT/PER
                 (F)     (DEG/KT/KT) (MB)    (MI)  (FT/S)
CALUMET HARBOR    68     280/  2/  3   N/A
MICHIGAN CITY     63     140/  2/  3   N/A
BURNS HARBOR      66     230/  2/  3 1016.3R
SAINT JOSEPH      62     180/  3/  3   N/A
4 MI NW BRIDGMAN  61 62                N/A           0
MICHIGAN CITY     62 63  170/  4/  4   N/A           0

$$
&&


USA.gov is the U.S. government's official web portal to all federal, state and local government web resources and services.